EW7074 Weather Reports


Display with metric or nautical units.
time (UTC)temp
F
wind
direction
speed
MPH
gust
MPH
rain 1hr
in
rain 24hr
in
rain mn
in
humidity
%
barometer
mb
20260904192741 69 268 0.0 0.0 0.00 0.00 0.00 50 1013.3
20260904192240 69 0.0 0.0 0.00 0.00 0.00 52
20260904191224 69 219 0.0 1.0 0.00 0.00 0.00 51 1013.2
20260904190724 68 222 0.0 1.0 0.00 0.00 0.00 51 1013.1
20260904185731 68 227 0.0 1.0 0.00 0.00 0.00 52 1013.0
20260904185230 68 0.0 0.0 0.00 0.00 0.00 51
20260904184020 68 222 0.0 2.0 0.00 0.00 0.00 51 1013.2
20260904182748 68 217 0.0 1.0 0.00 0.00 0.00 50 1013.2
20260904182246 68 0.0 0.0 0.00 0.00 0.00 52
20260904181315 68 224 0.0 1.0 0.00 0.00 0.00 53 1013.5
20260904180819 68 0.0 0.0 0.00 0.00 0.00 51
20260904175849 68 237 0.0 1.0 0.00 0.00 0.00 52 1013.6
20260904175349 68 0.0 0.0 0.00 0.00 0.00 54
20260904174545 68 214 0.0 1.0 0.00 0.00 0.00 53 1013.6
20260904173808 67 0.0 0.0 0.00 0.00 0.00 54
20260904172834 67 207 0.0 1.0 0.00 0.00 0.00 53 1013.6
20260904172330 67 0.0 0.0 0.00 0.00 0.00 54
20260904171307 67 218 0.0 2.0 0.00 0.00 0.00 53 1013.6
20260904170754 67 0.0 0.0 0.00 0.00 0.00 54
20260904165801 67 239 1.0 1.0 0.00 0.00 0.00 54 1013.9
20260904165532 67 0.0 0.0 0.00 0.00 0.00 55
20260904164608 67 239 2.0 9.0 0.00 0.00 0.00 55 1014.0
20260904163826 68 262 1.0 9.0 0.00 0.00 0.00 54 1014.1
20260904163314 68 261 0.0 5.0 0.00 0.00 0.00 53 1014.1
20260904162755 68 209 0.0 5.0 0.00 0.00 0.00 53 1014.2
20260904162243 69 0.0 0.0 0.00 0.00 0.00 52
20260904161315 69 302 0.0 1.0 0.00 0.00 0.00 52 1014.3
20260904160802 69 297 0.0 0.0 0.00 0.00 0.00 52 1014.3
20260904155904 69 297 0.0 1.0 0.00 0.00 0.00 52 1014.8
20260904155352 69 0.0 0.0 0.00 0.00 0.00 53 1014.6
20260904154858 68 295 0.0 2.0 0.00 0.00 0.00 53 1014.3
20260904153830 68 0.0 0.0 0.00 0.00 0.00 53
20260904152803 68 224 0.0 1.0 0.00 0.00 0.00 53 1014.6
20260904152523 67 0.0 0.0 0.00 0.00 0.00 53
20260904151320 67 262 0.0 2.0 0.00 0.00 0.00 53 1014.7
20260904150809 67 0.0 0.0 0.00 0.00 0.00 54
20260904145549 67 214 0.0 2.0 0.00 0.00 0.00 55 1014.9
20260904145050 68 0.0 1.0 0.00 0.00 0.00 54
20260904144344 67 159 0.0 1.0 0.00 0.00 0.00 55 1014.9
20260904143830 66 0.0 0.0 0.00 0.00 0.00 55
20260904142813 66 203 0.0 1.0 0.00 0.00 0.00 56 1014.9
20260904142259 66 0.0 0.0 0.00 0.00 0.00 56
20260904141334 66 233 1.0 1.0 0.00 0.00 0.00 57 1015.0
20260904140814 65 0.0 0.0 0.00 0.00 0.00 58
20260904135847 65 208 1.0 6.0 0.00 0.00 0.00 57 1015.4
20260904135332 66 0.0 0.0 0.00 0.00 0.00 57
20260904134313 66 228 1.0 3.0 0.00 0.00 0.00 55 1015.7
20260904133813 66 0.0 0.0 0.00 0.00 0.00 56 1015.8
20260904133103 66 131 0.0 1.0 0.00 0.00 0.00 55 1015.9
20260904132329 65 0.0 0.0 0.00 0.00 0.00 58
20260904131239 65 0.0 0.0 0.00 0.00 0.00 61
20260904131232 65 106 0.0 1.0 0.00 0.00 0.00 62 1015.9
20260904130047 65 137 0.0 1.0 0.00 0.00 0.00 62 1016.2
20260904125314 64 0.0 0.0 0.00 0.00 0.00 65
20260904124623 64 100 0.0 2.0 0.00 0.00 0.00 64 1016.5
20260904123842 63 0.0 0.0 0.00 0.00 0.00 73
20260904122815 63 101 0.0 2.0 0.00 0.00 0.00 75 1016.5
20260904122313 62 0.0 0.0 0.00 0.00 0.00 81
20260904121259 61 100 0.0 0.0 0.00 0.00 0.00 82 1016.6
20260904120757 61 98 0.0 0.0 0.00 0.00 0.00 86 1016.4
20260904120033 61 97 0.0 0.0 0.00 0.00 0.00 86 1016.2
20260904115249 60 0.0 0.0 0.00 0.00 0.00 88
20260904114328 60 89 0.0 0.0 0.00 0.00 0.00 89 1016.3
20260904113828 60 0.0 0.0 0.00 0.00 0.00 89
20260904112830 60 91 0.0 0.0 0.00 0.00 0.00 90 1016.2
20260904112044 60 0.0 0.0 0.00 0.00 0.00 90
20260904111540 60 116 0.0 0.0 0.00 0.00 0.00 90 1016.2
20260904110808 59 0.0 0.0 0.00 0.00 0.00 90
20260904110053 59 175 0.0 0.0 0.00 0.00 0.00 90 1016.2
20260904105307 58 0.0 0.0 0.00 0.00 0.00 90
20260904104335 58 219 0.0 0.0 0.00 0.00 0.00 90 1016.3
20260904103825 58 0.0 0.0 0.00 0.00 0.00 90
20260904102749 58 224 0.0 0.0 0.00 0.00 0.00 90 1016.1
20260904102238 58 0.0 0.0 0.00 0.00 0.00 90
20260904101304 58 224 0.0 0.0 0.00 0.00 0.00 90 1016.1
20260904101030 58 0.0 0.0 0.00 0.00 0.00 90
20260904095836 58 224 0.0 0.0 0.00 0.00 0.00 90 1015.9
20260904095329 58 0.0 0.0 0.00 0.00 0.00 89
20260904094240 58 224 0.0 0.0 0.00 0.00 0.00 89 1015.6
20260904093732 59 0.0 0.0 0.00 0.00 0.00 89
20260904092731 59 224 0.0 0.0 0.00 0.00 0.00 89 1015.3
20260904092230 59 0.0 0.0 0.00 0.00 0.00 89
20260904091230 59 224 0.0 0.0 0.00 0.00 0.00 89 1015.0
20260904090730 59 224 0.0 0.0 0.00 0.00 0.00 89 1015.0
20260904090054 59 224 0.0 0.0 0.00 0.00 0.00 89 1014.9
20260904085306 60 224 0.0 0.0 0.00 0.00 0.00 89 1014.7
20260904084306 60 224 0.0 0.0 0.00 0.00 0.00 89 1014.7
20260904083753 60 0.0 0.0 0.00 0.00 0.00 89
20260904082732 60 224 0.0 0.0 0.00 0.00 0.00 89 1014.7
20260904082227 60 224 0.0 0.0 0.00 0.00 0.00 89 1014.7
20260904081549 60 224 0.0 0.0 0.00 0.00 0.00 89 1014.5
20260904080807 60 0.0 0.0 0.00 0.00 0.00 89
20260904075842 60 224 0.0 0.0 0.00 0.00 0.00 89 1014.4
20260904075330 60 0.0 0.0 0.00 0.00 0.00 89
20260904073751 60 0.0 0.0 0.00 0.00 0.00 89
20260904072747 60 229 0.0 0.0 0.00 0.00 0.00 89 1014.1
20260904072004 60 229 0.0 0.0 0.00 0.00 0.00 88
20260904071429 60 229 0.0 0.0 0.00 0.00 0.00 88 1014.0
20260904071411 60 0.0 0.0 0.00 0.00 0.00 88
20260904065841 60 229 0.0 0.0 0.00 0.00 0.00 88 1013.9
20260904065332 60 0.0 0.0 0.00 0.00 0.00 88
20260904064330 60 212 0.0 0.0 0.00 0.00 0.00 88 1013.4
20260904063820 60 0.0 0.0 0.00 0.00 0.00 88
20260904062825 60 212 0.0 0.0 0.00 0.00 0.00 88 1013.2
20260904062313 60 0.0 0.0 0.00 0.00 0.00 88
20260904061248 60 212 2.0 1.0 0.00 0.00 0.00 88 1013.3
20260904060738 60 0.0 0.0 0.00 0.00 0.00 88
20260904055255 60 0.0 0.0 0.00 0.00 0.00 88
20260904054330 60 216 2.0 5.0 0.00 0.00 0.00 88 1013.2
20260904053806 61 0.0 0.0 0.00 0.00 0.00 88
20260904052752 61 220 0.0 0.0 0.00 0.00 0.00 88 1013.0
20260904052250 61 0.0 0.0 0.00 0.00 0.00 88
20260904051603 61 216 0.0 0.0 0.00 0.00 0.00 88 1012.9
20260904050830 61 0.0 0.0 0.00 0.00 0.00 88
20260904045808 61 218 1.0 4.0 0.00 0.00 0.00 88 1012.9
20260904045259 61 0.0 0.0 0.00 0.00 0.00 87
20260904043737 61 0.0 0.0 0.00 0.00 0.00 87
20260904043047 61 75 0.0 1.0 0.00 0.00 0.00 87 1012.8
20260904042306 61 0.0 0.0 0.00 0.00 0.00 87
20260904041615 61 201 0.0 0.0 0.00 0.00 0.00 87 1013.1
20260904041100 61 0.0 0.0 0.00 0.00 0.00 86
20260904035757 61 94 0.0 1.0 0.00 0.00 0.00 86 1013.0
20260904035256 62 97 0.0 1.0 0.00 0.00 0.00 86 1013.0
20260904034537 62 133 0.0 1.0 0.00 0.00 0.00 86 1012.9
20260904033805 62 0.0 0.0 0.00 0.00 0.00 86
20260904032844 62 215 0.0 1.0 0.00 0.00 0.00 86 1013.0
20260904032328 62 0.0 0.0 0.00 0.00 0.00 86
20260904031511 62 99 0.0 1.0 0.00 0.00 0.00 86 1012.9
20260904031252 62 225 0.0 1.0 0.00 0.00 0.00 86 1013.0
20260904031132 62 0.0 0.0 0.00 0.00 0.00 86
20260904030105 62 218 0.0 0.0 0.00 0.00 0.00 86 1012.7
20260904025318 62 0.0 0.0 0.00 0.00 0.00 86
20260904024120 62 0.0 0.0 0.00 0.00 0.00 85
20260904022849 62 91 0.0 1.0 0.00 0.00 0.00 85 1012.4
20260904022600 63 0.0 0.0 0.00 0.00 0.00 84
20260904021329 63 45 1.0 8.0 0.00 0.00 0.00 84 1012.4
20260904020830 64 0.0 0.0 0.00 0.00 0.00 84
20260904020058 64 150 0.0 1.0 0.00 0.00 0.00 84 1012.2
20260904015327 65 0.0 0.0 0.00 0.00 0.00 84
20260904014301 65 118 0.0 1.0 0.00 0.00 0.00 84 1011.8
20260904012329 67 0.0 0.0 0.00 0.00 0.00 83
20260904011254 67 77 5.0 11.0 0.00 0.00 0.00 83 1011.5
20260904010746 68 0.0 0.0 0.00 0.00 0.00 80
20260904005821 69 136 2.0 9.0 0.00 0.00 0.00 80 1011.2
20260904005312 71 0.0 0.0 0.00 0.00 0.00 79
20260904004522 71 243 1.0 5.0 0.00 0.00 0.00 79 1011.9
20260904002734 72 119 0.0 0.0 0.00 0.00 0.00 79 1011.5
20260904002234 72 106 0.0 0.0 0.00 0.00 0.00 78 1011.3
20260904001324 72 106 0.0 0.0 0.00 0.00 0.00 78 1011.2
20260904000822 73 0.0 0.0 0.00 0.00 0.00 76
20260904000030 73 106 0.0 0.0 0.00 0.00 0.00 76 1011.1
20260903234743 74 226 0.0 0.0 0.00 0.00 0.00 73 1010.9
20260903234012 74 0.0 0.0 0.00 0.00 0.00 72
20260903232930 74 226 0.0 0.0 0.00 0.00 0.00 72 1010.7
20260903232427 74 226 0.0 0.0 0.00 0.00 0.00 72 1010.8
20260903232157 75 226 0.0 0.0 0.00 0.00 0.00 71 1010.9
20260903230903 75 0.0 0.0 0.00 0.00 0.00 70
20260903225817 75 226 0.0 0.0 0.00 0.00 0.00 70 1010.6
20260903225315 76 0.0 0.0 0.00 0.00 0.00 68
20260903224257 76 226 0.0 0.0 0.00 0.00 0.00 68 1010.2
20260903223750 76 0.0 0.0 0.00 0.00 0.00 67
20260903223332 76 226 0.0 0.0 0.00 0.00 0.00 67 1010.0
20260903222552 77 0.0 0.0 0.00 0.00 0.00 66 1009.9
20260903221317 77 226 0.0 0.0 0.00 0.00 0.00 65 1009.6
20260903220810 77 0.0 0.0 0.00 0.00 0.00 64
20260903215750 77 226 0.0 0.0 0.00 0.00 0.00 63 1009.7
20260903215521 78 0.0 0.0 0.00 0.00 0.00 62
20260903214324 78 226 1.0 2.0 0.00 0.00 0.00 62 1009.4
20260903213806 78 251 1.0 0.0 0.00 0.00 0.00 59 1009.4
20260903212813 79 245 1.0 3.0 0.00 0.00 0.00 59 1009.3
20260903212252 80 0.0 0.0 0.00 0.00 0.00 56
20260903211330 80 243 0.0 0.0 0.00 0.00 0.00 57 1009.1
20260903210806 80 0.0 0.0 0.00 0.00 0.00 56
20260903205740 80 243 0.0 1.0 0.00 0.00 0.00 56 1008.9
20260903205239 81 266 0.0 1.0 0.00 0.00 0.00 55 1008.8
20260903204329 81 266 0.0 1.0 0.00 0.00 0.00 55 1008.7
20260903203814 81 0.0 0.0 0.00 0.00 0.00 53
20260903202951 81 243 0.0 1.0 0.00 0.00 0.00 53 1008.5
20260903202440 82 0.0 0.0 0.00 0.00 0.00 51
20260903201543 82 256 1.0 3.0 0.00 0.00 0.00 51 1008.4
20260903200758 83 0.0 0.0 0.00 0.00 0.00 50
20260903195527 83 0.0 0.0 0.00 0.00 0.00 50
20260903194255 83 252 1.0 2.0 0.00 0.00 0.00 50 1008.2
20260903194023 83 0.0 0.0 0.00 0.00 0.00 50